Regional Weather Roundup
Issued by NWS Newport/Morehead, NC

Current Version | Previous Version | Graphics & Text | Print | Product List | Glossary On
Versions: 1 2 3 4 5 6 7 8 9 10 11 12 13 14 15 16 17 18 19 20 21 22 23 24 25 26 27 28 29 30 31 32 33 34 35 36 37 38 39 40 41 42 43 44 45 46 47 48 49 50
000 ASUS42 KMHX 031513 RWRMHX WEATHER ROUNDUP FOR EASTERN NORTH CAROLINA NATIONAL WEATHER SERVICE NEWPORT/MOREHEAD CITY NC 1100 AM EDT WED JUN 03 2015 NOTE: "FAIR" INDICATES FEW OR NO CLOUDS BELOW 12,000 FEET WITH NO SIGNIFICANT WEATHER AND/OR OBSTRUCTIONS TO VISIBILITY NCZ015>017-031-032-045>047-102-103-031600- NORTH COAST CITY SKY/WX TMP DP RH WIND PRES REMARKS EDENTON LGT RAIN 66 65 96 NE6 30.07S ELIZABETH CITY LGT RAIN 67 65 93 N10 30.07S KITTY HAWK CLOUDY 67 67 99 NW3 30.06S MANTEO RAIN 68 68 99 N10 30.07S $$ NCZ045>047-081-094-103-104-031600- CENTRAL COAST CITY SKY/WX TMP DP RH WIND PRES REMARKS FRISCO CLOUDY 76 68 76 N9 30.06R SWANQUARTER N/A 72 N/A N/A NE9 30.03S $$ NCZ095-097-098-100-101-031600- SOUTHERN COAST CITY SKY/WX TMP DP RH WIND PRES REMARKS BEAUFORT LGT RAIN 71 70 96 N3 30.07R CEDAR ISLAND N/A 73 N/A N/A VRB8 30.09S JACKSONVILLE LGT RAIN 70 66 87 E7 30.05R PINEY ISLAND CLOUDY N/A N/A N/A NE13 30.06R WILMINGTON LGT RAIN 72 69 90 E6 30.03R $$ NCZ011>013-027>030-043-044-078>080-089-090>093-098-031600- COASTAL PLAIN CITY SKY/WX TMP DP RH WIND PRES REMARKS AHOSKIE LGT RAIN 66 64 94 NE6 30.09R CLINTON RAIN 71 70 96 CALM 30.06R ELIZABETHTOWN RAIN 69 69 100 CALM 30.06R GOLDSBORO CLOUDY 72 68 88 E5 30.04R GREENVILLE CLOUDY 72 68 88 E3 30.08R HAVELOCK RAIN 71 68 90 E6 30.08R KENANSVILLE LGT RAIN 69 67 95 E3 30.06R KINSTON LGT RAIN 72 68 88 E6 30.07R NEW BERN LGT RAIN 71 68 90 E3 30.08R RICHLANDS CLOUDY 70 64 83 E8 30.05S ROCKY MOUNT LGT RAIN 67 66 97 N7 30.08R FOG WASHINGTON CLOUDY 70 67 92 NE3 30.07R WHITEVILLE CLOUDY 70 67 91 NE6 30.04S $$ AMZ130-135-150-152-154-156-158-170-250-252-270-ANZ085-086-088-633-658-670-031600- MARINE OBSERVATIONS STATION/POSITION TIME TEMP WIND PRES WAVE SWELL AIR SEA DIR/SP/G HT/PER HT/PER (UTC) (F) (DEG/KT/KT) (MB) (FT/S) (FT/S) CHESAPEAKE LIGHT 1400 67 40/ 20/ 21 1018.3 64 E VA BEACH 1450 74 75 70/ 4/ 6 1017.1 5/ 7 5/ 7 DUCK 1400 62 58 340/ 11/ 12 1016.9 2 E DUCK 1411 69 N/A 4/ 7 OREGON INLET 1400 69 69 340/ 9/ 12 1017.5 13E OREGON INLT 1400 77 N/A 3/ 7 HATTERAS CG 1400 74 77 330/ 12/ 14 1016.9 DIAMOND BUOY 1450 77 81 280/ 4/ 6 1017.5 3/ 8 2/ 8 CAPE LOOKOUT 1500 71 350/ 6/ 7 1017.8 BEAUFORT LAB 1400 70 78 10/ 5/ 6 1016.7 30 SE NEW RVR IN NOT AVBL 27 SE WRIGHTSVLE 1400 77 80/ 10/ 12 N/A 5 SE WRIGHTSVLE 1408 73 77 90/ 12/ 16 1016.4 225 S CAPE HAT 1450 78 76 170/ 8/ 8 1017.2 3/ 9 3/ 9 41 SE CHARLESTON 1450 74 80 20/ 6/ 8 1016.2 2/ 8 2/ 8 $$

USA.gov is the U.S. government's official web portal to all federal, state and local government web resources and services.